When you browse on this site, cookies collect data to enhance your experience and personalize the content and advertising you see.
Visit our Privacy Policy to learn more. By continuing to use the site, you agree to this use of cookies and data.
  • In Österreich
  • Länderverzeichnis
  • Für 7 Tage
  • Wassertemperatur
  • Satellitenkarten
  • Wetterkarte
  • News
  • Widgets
  • user-avatar
    Anmelden

    Stündliche Wetter Wieniotowo

    Heute, 11 Dezember, Dienstag

    Zeit Temperatur Niederschläge Wind Luftdruck Luftfeuchtigkeit
    00:00 +2°C° 0.6 mm 7 m/S 752 mmHg 82%
    01:00 +2°C° 0 mm 6 m/S 752 mmHg 85%
    02:00 +2°C° 0.4 mm 6 m/S 752 mmHg 84%
    03:00 +2°C° 0.4 mm 6 m/S 753 mmHg 83%
    04:00 +2°C° 0.4 mm 6 m/S 753 mmHg 82%
    05:00 +2°C° 0.2 mm 6 m/S 753 mmHg 82%
    06:00 +2°C° 0.2 mm 6 m/S 754 mmHg 82%
    07:00 +1°C° 0 mm 6 m/S 754 mmHg 83%
    08:00 +1°C° 0.2 mm 6 m/S 755 mmHg 82%
    09:00 +2°C° 0.2 mm 7 m/S 756 mmHg 81%
    10:00 +2°C° 0.2 mm 7 m/S 756 mmHg 80%
    11:00 +2°C° 0.2 mm 7 m/S 757 mmHg 79%
    12:00 +2°C° 0.2 mm 7 m/S 757 mmHg 78%
    13:00 +2°C° 0.2 mm 6 m/S 758 mmHg 78%
    14:00 +2°C° 0.2 mm 6 m/S 758 mmHg 80%
    15:00 +2°C° 0.2 mm 6 m/S 759 mmHg 81%
    16:00 +1°C° 0.2 mm 6 m/S 759 mmHg 83%
    17:00 +1°C° 0.2 mm 6 m/S 759 mmHg 85%
    18:00 +1°C° 0.2 mm 6 m/S 760 mmHg 86%
    19:00 +1°C° 0.2 mm 6 m/S 760 mmHg 87%
    20:00 +1°C° 0.1 mm 6 m/S 761 mmHg 88%
    21:00 +1°C° 0.1 mm 5 m/S 762 mmHg 89%
    22:00 0°C° 0.1 mm 5 m/S 762 mmHg 90%
    23:00 0°C° 0 mm 5 m/S 763 mmHg 90%

    Morgen, 12 Dezember, Mittwoch

    Zeit Temperatur Niederschläge Wind Luftdruck Luftfeuchtigkeit
    00:00 0°C° 0 mm 4 m/S 763 mmHg 89%
    01:00 0°C° 0 mm 4 m/S 764 mmHg 88%
    02:00 0°C° 0 mm 4 m/S 764 mmHg 88%
    03:00 0°C° 0 mm 4 m/S 765 mmHg 88%
    04:00 +1°C° 0 mm 3 m/S 765 mmHg 87%
    05:00 +1°C° 0.1 mm 3 m/S 766 mmHg 87%
    06:00 +1°C° 0.1 mm 3 m/S 766 mmHg 87%
    07:00 +1°C° 0.1 mm 3 m/S 766 mmHg 86%
    08:00 +1°C° 0.2 mm 3 m/S 767 mmHg 84%
    09:00 +1°C° 0.2 mm 4 m/S 767 mmHg 83%
    10:00 +1°C° 0.2 mm 4 m/S 768 mmHg 81%
    11:00 +1°C° 0.2 mm 4 m/S 768 mmHg 81%
    12:00 +3°C° 0.2 mm 4 m/S 768 mmHg 80%
    13:00 +3°C° 0.2 mm 4 m/S 768 mmHg 80%
    14:00 +2°C° 0.1 mm 5 m/S 768 mmHg 82%
    15:00 +1°C° 0.1 mm 5 m/S 768 mmHg 85%
    16:00 +1°C° 0.1 mm 5 m/S 768 mmHg 87%
    17:00 0°C° 0.1 mm 5 m/S 768 mmHg 88%
    18:00 0°C° 0.1 mm 5 m/S 769 mmHg 89%
    19:00 0°C° 0.1 mm 5 m/S 769 mmHg 89%
    20:00 0°C° 0.1 mm 5 m/S 769 mmHg 90%
    21:00 -1°C° 0.1 mm 4 m/S 769 mmHg 90%
    22:00 -1°C° 0.1 mm 4 m/S 769 mmHg 91%
    23:00 -1°C° 0.1 mm 4 m/S 769 mmHg 91%

    übermorgen, 13 Dezember, Donnerstag

    Zeit Temperatur Niederschläge Wind Luftdruck Luftfeuchtigkeit
    00:00 -1°C° 0.1 mm 4 m/S 769 mmHg 91%
    01:00 -1°C° 0.1 mm 4 m/S 769 mmHg 91%
    02:00 -1°C° 0.1 mm 4 m/S 769 mmHg 91%
    03:00 0°C° 0.1 mm 3 m/S 769 mmHg 91%
    04:00 0°C° 0.1 mm 3 m/S 769 mmHg 92%
    05:00 0°C° 0.1 mm 3 m/S 769 mmHg 92%
    06:00 0°C° 0.1 mm 3 m/S 769 mmHg 92%
    07:00 0°C° 0.1 mm 3 m/S 769 mmHg 92%
    08:00 0°C° 0.1 mm 3 m/S 769 mmHg 90%
    09:00 -1°C° 0.1 mm 4 m/S 769 mmHg 88%
    10:00 0°C° 0.1 mm 4 m/S 769 mmHg 86%
    11:00 0°C° 0.1 mm 4 m/S 768 mmHg 84%
    12:00 +1°C° 0.1 mm 3 m/S 768 mmHg 82%
    13:00 +2°C° 0.1 mm 3 m/S 768 mmHg 80%
    14:00 +1°C° 0.1 mm 3 m/S 768 mmHg 82%
    15:00 +1°C° 0.1 mm 3 m/S 768 mmHg 85%
    16:00 0°C° 0.1 mm 3 m/S 768 mmHg 87%
    17:00 0°C° 0.1 mm 3 m/S 768 mmHg 88%
    18:00 -1°C° 0.1 mm 4 m/S 768 mmHg 88%
    19:00 -1°C° 0.1 mm 4 m/S 768 mmHg 89%
    20:00 0°C° 0.1 mm 3 m/S 769 mmHg 89%
    21:00 -1°C° 0.1 mm 3 m/S 769 mmHg 89%
    22:00 -1°C° 0.1 mm 3 m/S 769 mmHg 89%
    23:00 -1°C° 0 mm 3 m/S 769 mmHg 89%

    14 Dezember, Freitag

    Zeit Temperatur Niederschläge Wind Luftdruck Luftfeuchtigkeit
    00:00 -1°C° 0 mm 2 m/S 769 mmHg 89%
    01:00 -1°C° 0 mm 2 m/S 769 mmHg 88%
    02:00 -1°C° 0 mm 2 m/S 769 mmHg 88%
    03:00 -1°C° 0 mm 2 m/S 769 mmHg 89%
    04:00 -2°C° 0 mm 2 m/S 769 mmHg 89%
    05:00 -2°C° 0 mm 2 m/S 769 mmHg 88%
    06:00 -2°C° 0 mm 2 m/S 769 mmHg 87%
    07:00 -2°C° 0 mm 2 m/S 769 mmHg 85%
    08:00 -2°C° 0 mm 2 m/S 770 mmHg 83%
    09:00 -2°C° 0 mm 3 m/S 770 mmHg 80%
    10:00 -1°C° 0 mm 3 m/S 770 mmHg 77%
    11:00 -1°C° 0 mm 3 m/S 770 mmHg 74%
    12:00 -1°C° 0 mm 3 m/S 770 mmHg 71%
    13:00 0°C° 0 mm 3 m/S 770 mmHg 68%
    14:00 -1°C° 0 mm 3 m/S 771 mmHg 71%
    15:00 -1°C° 0 mm 3 m/S 771 mmHg 74%
    16:00 -2°C° 0 mm 3 m/S 771 mmHg 77%
    17:00 -2°C° 0 mm 3 m/S 771 mmHg 78%
    18:00 -2°C° 0 mm 3 m/S 771 mmHg 79%
    19:00 -2°C° 0 mm 3 m/S 771 mmHg 80%
    20:00 -2°C° 0 mm 3 m/S 772 mmHg 81%
    21:00 -2°C° 0 mm 3 m/S 772 mmHg 83%
    22:00 -3°C° 0 mm 4 m/S 772 mmHg 84%
    23:00 -4°C° 0 mm 3 m/S 772 mmHg 84%

    15 Dezember, Samstag

    Zeit Temperatur Niederschläge Wind Luftdruck Luftfeuchtigkeit
    00:00 -4°C° 0 mm 3 m/S 772 mmHg 85%
    01:00 -4°C° 0 mm 3 m/S 772 mmHg 85%
    02:00 -4°C° 0 mm 3 m/S 772 mmHg 86%
    03:00 -3°C° 0 mm 2 m/S 772 mmHg 86%
    04:00 -3°C° 0 mm 2 m/S 772 mmHg 87%
    05:00 -3°C° 0 mm 2 m/S 772 mmHg 87%
    06:00 -3°C° 0 mm 2 m/S 773 mmHg 87%
    07:00 -3°C° 0 mm 2 m/S 773 mmHg 88%
    08:00 -2°C° 0 mm 2 m/S 773 mmHg 86%
    09:00 -2°C° 0 mm 2 m/S 774 mmHg 84%
    10:00 +1°C° 0 mm 1 m/S 774 mmHg 82%
    11:00 +1°C° 0 mm 1 m/S 774 mmHg 81%
    12:00 +1°C° 0 mm 1 m/S 774 mmHg 79%
    13:00 +2°C° 0 mm 1 m/S 774 mmHg 78%
    14:00 +1°C° 0 mm 1 m/S 774 mmHg 82%
    15:00 +1°C° 0 mm 1 m/S 774 mmHg 85%
    16:00 0°C° 0 mm 1 m/S 774 mmHg 88%
    17:00 -2°C° 0 mm 2 m/S 774 mmHg 89%
    18:00 -2°C° 0 mm 2 m/S 774 mmHg 90%
    19:00 -2°C° 0 mm 3 m/S 774 mmHg 90%
    20:00 -4°C° 0 mm 3 m/S 774 mmHg 90%
    21:00 -4°C° 0 mm 3 m/S 774 mmHg 89%
    22:00 -4°C° 0 mm 3 m/S 774 mmHg 89%
    23:00 -4°C° 0 mm 3 m/S 774 mmHg 88%

    16 Dezember, Sonntag

    Zeit Temperatur Niederschläge Wind Luftdruck Luftfeuchtigkeit
    00:00 -4°C° 0 mm 3 m/S 774 mmHg 88%
    01:00 -4°C° 0 mm 3 m/S 774 mmHg 87%
    02:00 -4°C° 0 mm 3 m/S 774 mmHg 88%
    03:00 -4°C° 0 mm 3 m/S 774 mmHg 88%
    04:00 -4°C° 0 mm 3 m/S 774 mmHg 89%
    05:00 -4°C° 0 mm 3 m/S 774 mmHg 89%
    06:00 -4°C° 0 mm 4 m/S 773 mmHg 89%
    07:00 -4°C° 0 mm 4 m/S 773 mmHg 89%
    08:00 -5°C° 0 mm 5 m/S 773 mmHg 87%
    09:00 -5°C° 0 mm 5 m/S 773 mmHg 84%
    10:00 -4°C° 0 mm 6 m/S 773 mmHg 82%
    11:00 -4°C° 0 mm 6 m/S 772 mmHg 80%
    12:00 -3°C° 0 mm 6 m/S 772 mmHg 78%
    13:00 -3°C° 0 mm 6 m/S 772 mmHg 76%
    14:00 -3°C° 0 mm 6 m/S 771 mmHg 79%
    15:00 -4°C° 0 mm 6 m/S 771 mmHg 81%
    16:00 -4°C° 0 mm 6 m/S 770 mmHg 83%
    17:00 -4°C° 0 mm 6 m/S 770 mmHg 82%
    18:00 -4°C° 0 mm 7 m/S 770 mmHg 81%
    19:00 -4°C° 0 mm 7 m/S 770 mmHg 80%
    20:00 -5°C° 0 mm 8 m/S 769 mmHg 77%
    21:00 -5°C° 0 mm 8 m/S 769 mmHg 75%
    22:00 -5°C° 0 mm 8 m/S 768 mmHg 73%
    23:00 -5°C° 0 mm 8 m/S 768 mmHg 73%
    Mehr zeigen